EW3232 Weather Reports


Display with metric or nautical units.
time (UTC)temp
F
wind
direction
speed
MPH
gust
MPH
rain 1hr
in
rain 24hr
in
rain mn
in
humidity
%
barometer
mb
20260509110117 57 52 8.0 13.0 0.24 0.24 0.24 91 1011.9
20260509104622 58 5 3.0 6.0 0.06 0.06 0.06 90 1011.9
20260509103150 58 21 1.0 3.0 0.00 0.00 0.00 88 1011.9
20260509101515 58 56 0.0 2.0 0.00 0.00 0.00 90 1012.1
20260509100004 58 63 0.0 3.0 0.00 0.00 0.00 90 1012.3
20260509094656 58 67 3.0 7.0 0.00 0.00 0.00 90 1012.0
20260509093010 58 34 3.0 8.0 0.00 0.00 0.00 91 1012.2
20260509091506 58 33 5.0 10.0 0.00 0.00 0.00 91 1012.2
20260509090144 57 342 2.0 6.0 0.00 0.00 0.00 91 1012.3
20260509084648 57 34 2.0 5.0 0.00 0.00 0.00 91 1012.5
20260509081653 57 50 2.0 9.0 0.00 0.00 0.00 90 1012.1
20260509080149 58 44 3.0 8.0 0.00 0.00 0.00 89 1012.2
20260509074515 58 342 1.0 4.0 0.00 0.00 0.00 88 1011.7
20260509073021 58 275 1.0 4.0 0.00 0.00 0.00 87 1011.4
20260509071533 57 146 1.0 3.0 0.00 0.00 0.00 89 1011.2
20260509070038 56 127 0.0 2.0 0.00 0.00 0.00 90 1011.3
20260509064600 56 33 1.0 3.0 0.00 0.00 0.00 90 1011.8
20260509063127 55 239 3.0 8.0 0.00 0.00 0.00 90 1012.0
20260509061650 55 215 2.0 6.0 0.00 0.00 0.00 92 1012.2
20260509060146 54 256 1.0 2.0 0.00 0.00 0.00 92 1011.8
20260509053035 54 87 1.0 2.0 0.00 0.00 0.00 92 1011.8
20260509051555 53 135 0.0 2.0 0.00 0.00 0.00 92 1011.7
20260509050058 53 137 0.0 3.0 0.00 0.00 0.00 92 1011.5
20260509044611 53 256 0.0 2.0 0.00 0.00 0.00 93 1011.7
20260509043130 53 306 0.0 2.0 0.00 0.00 0.00 93 1011.9
20260509041655 53 360 0.0 2.0 0.00 0.00 0.00 93 1011.8
20260509040017 53 360 0.0 3.0 0.00 0.00 0.00 93 1012.0
20260509034657 52 23 0.0 2.0 0.00 0.00 0.00 93 1012.2
20260509033017 52 329 0.0 2.0 0.00 0.00 0.00 93 1012.3
20260509031536 52 329 0.0 2.0 0.00 0.00 0.00 93 1012.2
20260509030021 52 333 0.0 2.0 0.00 0.00 0.00 94 1012.3
20260509024540 52 333 0.0 2.0 0.00 0.00 0.00 94 1012.5
20260509023139 52 333 0.0 2.0 0.00 0.00 0.00 94 1012.5
20260509014521 51 268 1.0 3.0 0.00 0.00 0.00 94 1012.7
20260509013038 50 272 1.0 2.0 0.00 0.00 0.00 93 1013.1
20260509011601 50 286 0.0 2.0 0.00 0.00 0.00 93 1013.3
20260509010033 50 286 1.0 2.0 0.00 0.00 0.00 93 1013.3
20260509004555 51 293 0.0 2.0 0.00 0.00 0.00 93 1013.3
20260509003047 51 264 0.0 1.0 0.00 0.00 0.00 93 1013.4
20260509001552 52 264 0.0 2.0 0.00 0.00 0.00 93 1013.6
20260509000125 51 264 0.0 4.0 0.00 0.00 0.00 94 1013.6
20260508234600 51 266 2.0 4.0 0.00 0.00 0.00 93 1013.8
20260508233017 51 271 2.0 3.0 0.00 0.00 0.00 92 1013.9
20260508231543 52 271 0.0 2.0 0.00 0.00 0.00 92 1014.2
20260508230109 52 271 0.0 2.0 0.00 0.00 0.00 92 1014.0
20260508224551 53 260 1.0 2.0 0.00 0.00 0.00 92 1014.2
20260508223100 53 252 1.0 3.0 0.00 0.00 0.00 92 1014.1
20260508223037 53 271 1.0 3.0 0.00 0.00 0.00 92 1014.1
20260508221535 53 263 2.0 4.0 0.00 0.00 0.00 91 1014.2
20260508220002 54 306 1.0 4.0 0.00 0.00 0.00 92 1014.3
20260508214608 55 318 1.0 3.0 0.00 0.00 0.00 92 1014.3
20260508213130 55 360 0.0 2.0 0.00 0.00 0.00 92 1014.5
20260508211531 56 82 0.0 2.0 0.00 0.00 0.00 93 1014.5
20260508210040 56 82 0.0 2.0 0.00 0.00 0.00 92 1014.4
20260508204602 56 82 0.0 2.0 0.00 0.00 0.00 92 1014.1
20260508201527 56 79 1.0 2.0 0.00 0.00 0.00 91 1014.0
20260508200006 56 38 0.0 2.0 0.00 0.00 0.00 91 1013.7
20260508194526 56 41 0.0 2.0 0.00 0.00 0.00 90 1013.6
20260508193058 56 24 1.0 3.0 0.00 0.00 0.00 90 1013.4
20260508191551 56 27 1.0 4.0 0.00 0.00 0.00 89 1013.1
20260508190026 57 43 1.0 2.0 0.00 0.00 0.00 88 1013.1
20260508184545 58 83 2.0 4.0 0.00 0.00 0.00 88 1013.2
20260508183139 58 74 2.0 5.0 0.00 0.00 0.00 86 1013.0
20260508181614 58 53 2.0 5.0 0.00 0.00 0.00 85 1012.9
20260508180055 58 59 2.0 4.0 0.00 0.00 0.00 82 1012.6
20260508174624 59 66 2.0 5.0 0.00 0.00 0.00 82 1012.6
20260508173148 59 60 3.0 8.0 0.00 0.00 0.00 81 1012.6
20260508171647 59 5 2.0 6.0 0.00 0.00 0.00 81 1012.5
20260508170120 59 60 3.0 5.0 0.00 0.00 0.00 81 1012.5
20260508164650 59 9 2.0 5.0 0.00 0.00 0.00 79 1012.6
20260508160036 59 73 4.0 9.0 0.00 0.00 0.00 79 1012.5
20260508154607 59 79 4.0 8.0 0.00 0.00 0.00 78 1012.4
20260508153128 59 27 2.0 5.0 0.00 0.00 0.00 81 1012.3
20260508151649 59 27 2.0 6.0 0.00 0.00 0.00 80 1012.4
20260508150137 59 34 2.0 10.0 0.00 0.00 0.00 80 1012.5
20260508144656 59 107 5.0 12.0 0.00 0.00 0.00 80 1012.7
20260508143020 59 71 3.0 10.0 0.00 0.00 0.00 85 1012.8
20260508141535 58 82 5.0 9.0 0.00 0.00 0.00 83 1013.1
20260508140037 59 102 5.0 8.0 0.00 0.00 0.00 82 1013.2
20260508134551 59 111 3.0 7.0 0.00 0.00 0.00 80 1013.2
20260508133030 60 109 0.0 2.0 0.00 0.00 0.00 81 1013.3
20260508131521 59 185 1.0 4.0 0.00 0.00 0.00 81 1013.2
20260508130022 58 215 2.0 7.0 0.00 0.00 0.00 85 1013.1
20260508124540 58 225 2.0 7.0 0.00 0.00 0.00 86 1013.0
20260508123033 58 57 2.0 6.0 0.00 0.00 0.00 86 1013.2
20260508121517 58 38 1.0 4.0 0.00 0.00 0.00 86 1013.3
20260508120022 57 12 0.0 7.0 0.00 0.00 0.00 87 1013.5
20260508114536 57 6 0.0 3.0 0.00 0.13 0.00 88 1013.4
20260508113046 56 77 4.0 6.0 0.00 0.13 0.00 88 1013.4
20260508111525 57 42 4.0 10.0 0.00 0.13 0.00 87 1013.6